EW1296 Weather Reports


time (UTC)temp
F
wind
direction
speed
knots
gust
knots
rain 1hr
in
rain 24hr
in
rain mn
in
humidity
%
barometer
mb
20260508152016 62 225 2.6 8.7 0.00 0.00 0.00 37 1012.8
20260508151538 62 338 4.3 8.7 0.00 0.00 0.00 36 1012.8
20260508151016 62 315 3.5 9.6 0.00 0.00 0.00 36 1012.8
20260508150516 62 270 3.5 10.4 0.00 0.00 0.00 37 1012.8
20260508150017 61 270 4.3 12.2 0.00 0.00 0.00 37 1012.8
20260508145517 61 293 2.6 7.0 0.00 0.00 0.00 38 1012.8
20260508145016 61 270 4.3 8.7 0.00 0.00 0.00 38 1012.8
20260508144516 61 270 3.5 10.4 0.00 0.00 0.00 40 1012.9
20260508144056 60 270 4.3 9.6 0.00 0.00 0.00 41 1012.9
20260508143517 60 270 5.2 9.6 0.00 0.00 0.00 40 1013.1
20260508143017 60 315 3.5 8.7 0.00 0.00 0.00 43 1013.1
20260508142518 60 315 4.3 9.6 0.00 0.00 0.00 42 1013.0
20260508142016 60 248 3.5 8.7 0.00 0.00 0.00 45 1013.1
20260508141536 59 315 3.5 7.8 0.00 0.00 0.00 44 1013.1
20260508141016 59 270 3.5 7.8 0.00 0.00 0.00 48 1013.2
20260508140517 59 338 3.5 7.8 0.00 0.00 0.00 48 1013.1
20260508140016 59 248 3.5 10.4 0.00 0.00 0.00 48 1013.2
20260508135516 58 270 5.2 11.3 0.00 0.00 0.00 48 1013.3
20260508135016 59 270 5.2 11.3 0.00 0.00 0.00 48 1013.3
20260508134536 59 270 4.3 7.8 0.00 0.00 0.00 50 1013.2
20260508134016 58 248 4.3 8.7 0.00 0.00 0.00 51 1013.2
20260508133516 58 315 4.3 9.6 0.00 0.00 0.00 51 1013.2
20260508133016 57 315 3.5 8.7 0.00 0.00 0.00 52 1013.3
20260508132516 57 293 4.3 7.8 0.00 0.00 0.00 52 1013.3
20260508132016 56 315 3.5 9.6 0.00 0.00 0.00 54 1013.3
20260508131516 56 270 4.3 8.7 0.00 0.00 0.00 55 1013.2
20260508131016 56 315 5.2 9.6 0.00 0.00 0.00 55 1013.2
20260508130516 56 315 4.3 7.8 0.00 0.00 0.00 56 1013.2
20260508130017 56 270 5.2 11.3 0.00 0.00 0.00 57 1013.1
20260508125518 56 315 4.3 9.6 0.00 0.00 0.00 57 1013.1
20260508125016 55 315 3.5 9.6 0.00 0.00 0.00 57 1013.2
20260508124516 55 248 4.3 13.0 0.00 0.00 0.00 58 1013.1
20260508124016 55 315 2.6 7.8 0.00 0.00 0.00 59 1013.1
20260508123516 55 315 4.3 9.6 0.00 0.00 0.00 59 1013.1
20260508123036 55 248 3.5 7.8 0.00 0.00 0.00 60 1013.2
20260508122516 54 270 5.2 8.7 0.00 0.00 0.00 60 1013.3
20260508122015 54 270 4.3 9.6 0.00 0.00 0.00 62 1013.3
20260508121516 54 293 4.3 11.3 0.00 0.00 0.00 63 1013.4
20260508121017 54 293 3.5 8.7 0.00 0.00 0.00 65 1013.5
20260508120517 53 248 5.2 12.2 0.00 0.00 0.00 65 1013.5
20260508120017 53 270 5.2 9.6 0.00 0.00 0.00 66 1013.4
20260508115516 53 270 4.3 10.4 0.00 0.00 0.00 67 1013.4
20260508115036 53 270 3.5 7.0 0.00 0.00 0.00 68 1013.2
20260508114516 53 248 4.3 8.7 0.00 0.00 0.00 68 1013.2
20260508114017 52 270 2.6 7.0 0.00 0.00 0.00 68 1013.2
20260508113516 52 270 4.3 7.0 0.00 0.00 0.00 68 1013.2
20260508113016 52 270 4.3 7.8 0.00 0.00 0.00 69 1013.1
20260508112516 52 315 3.5 6.1 0.00 0.00 0.00 69 1013.1
20260508112016 52 270 3.5 6.1 0.00 0.00 0.00 70 1013.1
20260508111516 52 248 2.6 5.2 0.00 0.00 0.00 70 1013.1
20260508111016 52 248 2.6 7.8 0.00 0.00 0.00 70 1013.0
20260508110516 51 248 1.7 4.3 0.00 0.00 0.00 71 1012.9
20260508110016 51 270 1.7 3.5 0.00 0.00 0.00 72 1012.8
20260508105535 51 293 2.6 5.2 0.00 0.00 0.00 72 1012.8
20260508105016 51 248 2.6 7.0 0.00 0.00 0.00 73 1012.7
20260508104516 50 315 0.9 2.6 0.00 0.00 0.00 73 1012.5
20260508104017 50 293 0.9 1.7 0.00 0.00 0.00 73 1012.5
20260508103515 50 0 0.9 2.6 0.00 0.00 0.00 73 1012.5
20260508103016 50 293 1.7 3.5 0.00 0.00 0.00 73 1012.4
20260508102516 50 315 1.7 4.3 0.00 0.00 0.00 73 1012.5
20260508102036 50 315 2.6 4.3 0.00 0.00 0.00 73 1012.4
20260508101537 50 315 2.6 6.1 0.00 0.00 0.00 73 1012.4
20260508101017 50 315 2.6 7.0 0.00 0.00 0.00 73 1012.4
20260508100517 50 315 0.9 3.5 0.00 0.00 0.00 73 1012.3
20260508100016 50 315 1.7 7.0 0.00 0.00 0.00 73 1012.3
20260508095516 50 315 2.6 7.0 0.00 0.00 0.00 72 1012.3
20260508095016 50 315 2.6 4.3 0.00 0.00 0.00 72 1012.2
20260508094536 50 315 1.7 6.1 0.00 0.00 0.00 72 1012.1
20260508094017 50 293 1.7 3.5 0.00 0.00 0.00 72 1012.2
20260508093516 50 338 2.6 5.2 0.00 0.00 0.00 72 1012.1
20260508093016 50 315 2.6 6.1 0.00 0.00 0.00 72 1012.1
20260508092515 50 315 2.6 4.3 0.00 0.00 0.00 72 1012.0
20260508092037 50 315 0.9 3.5 0.00 0.00 0.00 72 1011.9
20260508091515 50 45 0.9 3.5 0.00 0.00 0.00 72 1011.5
20260508091015 50 315 1.7 3.5 0.00 0.00 0.00 72 1011.7
20260508090515 50 338 2.6 8.7 0.00 0.00 0.00 71 1011.7
20260508090015 50 315 3.5 8.7 0.00 0.01 0.00 72 1011.7
20260508085515 50 338 2.6 8.7 0.00 0.01 0.00 72 1011.8
20260508085016 50 338 2.6 7.0 0.00 0.01 0.00 71 1011.7
20260508084516 50 338 2.6 7.0 0.00 0.01 0.00 71 1011.7
20260508084017 50 0 2.6 8.7 0.00 0.01 0.00 71 1011.6
20260508083515 50 315 1.7 7.0 0.00 0.01 0.00 70 1011.7
20260508083015 50 293 2.6 7.0 0.00 0.01 0.00 70 1011.8
20260508082517 50 315 4.3 8.7 0.00 0.01 0.00 70 1011.8
20260508082015 50 315 3.5 7.8 0.00 0.01 0.00 69 1011.7
20260508081515 51 315 3.5 9.6 0.00 0.01 0.00 69 1011.6
20260508081015 51 338 4.3 10.4 0.00 0.01 0.00 68 1011.5
20260508080517 51 338 4.3 13.0 0.00 0.01 0.00 66 1011.2
20260508080016 51 338 3.5 8.7 0.00 0.01 0.00 64 1011.1
20260508075515 51 338 3.5 10.4 0.00 0.01 0.00 62 1010.9
20260508075036 52 0 3.5 10.4 0.00 0.01 0.00 61 1010.8
20260508074515 52 0 3.5 10.4 0.00 0.01 0.00 61 1010.7
20260508074015 52 45 3.5 8.7 0.00 0.01 0.00 59 1010.7
20260508073516 52 0 1.7 5.2 0.00 0.01 0.00 59 1010.7
20260508073015 52 0 3.5 10.4 0.00 0.02 0.00 59 1010.7
20260508072515 52 23 2.6 8.7 0.00 0.02 0.00 59 1010.7
20260508072017 53 338 2.6 8.7 0.00 0.02 0.00 60 1010.7
20260508071517 53 0 2.6 8.7 0.00 0.02 0.00 60 1010.7
20260508071016 53 338 3.5 9.6 0.00 0.02 0.00 60 1010.6
20260508070517 53 45 2.6 7.8 0.00 0.02 0.00 60 1010.6
20260508070017 53 0 3.5 9.6 0.00 0.02 0.00 60 1010.7
20260508065515 53 45 3.5 11.3 0.00 0.02 0.00 62 1010.9
20260508065017 53 338 3.5 11.3 0.00 0.03 0.00 62 1010.9
20260508064517 54 338 4.3 13.0 0.00 0.03 0.00 62 1011.0
20260508064018 54 338 3.5 10.4 0.00 0.03 0.00 62 1011.0
20260508063517 54 338 4.3 10.4 0.00 0.04 0.00 62 1011.0
20260508063017 54 0 5.2 12.2 0.00 0.05 0.00 62 1010.9
20260508062517 54 315 7.8 14.8 0.00 0.06 0.00 62 1010.8
20260508062037 54 315 6.1 12.2 0.00 0.08 0.00 67 1010.9
20260508061517 55 315 4.3 7.8 0.00 0.09 0.00 75 1010.7
20260508061017 55 293 2.6 7.0 0.00 0.10 0.00 77 1010.6
20260508060518 55 270 4.3 9.6 0.00 0.11 0.00 77 1010.5
20260508060019 55 270 3.5 9.6 0.00 0.12 0.00 77 1010.5
20260508055517 54 293 2.6 5.2 0.00 0.14 0.00 77 1010.0
20260508055019 54 293 0.9 2.6 0.00 0.16 0.00 76 1009.6
20260508054518 54 0.0 0.9 0.00 0.16 0.00 76 1009.4
20260508054017 54 0.0 0.9 0.00 0.16 0.00 76 1009.3
20260508053517 54 270 1.7 4.3 0.00 0.16 0.00 76 1009.4
20260508053037 54 270 1.7 3.5 0.00 0.16 0.00 77 1009.5
20260508052558 54 248 1.7 4.3 0.00 0.16 0.00 77 1009.5
20260508052017 54 248 2.6 7.0 0.00 0.16 0.00 77 1009.7
20260508051517 54 225 2.6 5.2 0.00 0.16 0.00 77 1009.6
20260508051018 54 248 1.7 3.5 0.00 0.16 0.00 77 1009.5
20260508050518 54 225 0.9 2.6 0.00 0.16 0.00 77 1009.6
20260508050017 54 225 0.9 3.5 0.00 0.16 0.00 76 1009.5
20260508045558 54 225 1.7 4.3 0.00 0.16 0.00 76 1009.4
20260508045018 54 225 1.7 3.5 0.00 0.16 0.00 75 1009.3
20260508044617 54 225 1.7 4.3 0.00 0.16 0.00 75 1009.2
20260508044017 54 0.0 2.6 0.00 0.16 0.00 74 1009.1
20260508043517 54 225 0.9 3.5 0.00 0.16 0.00 74 1009.1
20260508043017 54 225 0.9 3.5 0.00 0.16 0.00 74 1009.2
20260508042517 54 225 0.9 2.6 0.00 0.16 0.00 73 1009.3
20260508042017 54 0.0 2.6 0.00 0.16 0.00 73 1009.2
20260508041517 54 0.0 2.6 0.00 0.16 0.00 73 1009.1
20260508041017 54 0.0 2.6 0.00 0.16 0.00 73 1009.2
20260508040518 54 0.0 0.0 0.00 0.16 0.00 73 1009.3
20260508040019 55 203 0.9 2.6 0.00 0.16 0.16 73 1009.2
20260508035515 55 225 0.9 3.5 0.00 0.16 0.16 73 1009.4
20260508035015 55 203 0.9 3.5 0.00 0.16 0.16 72 1009.4
20260508034515 55 248 1.7 3.5 0.00 0.16 0.16 72 1009.4
20260508034015 55 203 0.9 2.6 0.00 0.16 0.16 72 1009.4
20260508033515 55 225 0.9 4.3 0.00 0.16 0.16 72 1009.4
20260508033016 55 225 2.6 4.3 0.00 0.16 0.16 72 1009.4
20260508032515 55 225 1.7 4.3 0.00 0.16 0.16 71 1009.5
20260508032017 55 0.0 2.6 0.00 0.16 0.16 71 1009.6
20260508031517 56 0.0 2.6 0.00 0.16 0.16 71 1009.5
20260508031036 56 0.0 1.7 0.00 0.16 0.16 70 1009.5
20260508030516 56 225 0.9 4.3 0.00 0.16 0.16 70 1009.5
20260508030015 56 225 1.7 5.2 0.00 0.16 0.16 70 1009.4
20260508025515 56 225 1.7 4.3 0.00 0.16 0.16 69 1009.4
20260508025016 56 225 1.7 5.2 0.00 0.16 0.16 69 1009.5
20260508024515 56 225 3.5 8.7 0.00 0.16 0.16 68 1009.5
20260508024016 57 225 3.5 7.8 0.00 0.16 0.16 68 1009.5
20260508023516 57 203 1.7 5.2 0.00 0.16 0.16 67 1009.4
20260508023015 57 225 0.9 3.5 0.00 0.16 0.16 67 1009.4
20260508022515 58 225 1.7 7.0 0.00 0.16 0.16 66 1009.4
20260508022016 58 0.0 2.6 0.00 0.16 0.16 65 1009.4
20260508021515 58 248 0.9 3.5 0.00 0.16 0.16 63 1009.3
20260508021015 59 0.0 0.0 0.00 0.16 0.16 62 1009.3
20260508020555 59 0.0 0.9 0.00 0.16 0.16 60 1009.2
20260508020136 59 225 0.9 5.2 0.00 0.16 0.16 59 1009.2
20260508015515 60 225 0.9 2.6 0.00 0.16 0.16 57 1009.2
20260508015015 60 225 0.9 3.5 0.00 0.16 0.16 55 1009.1
20260508014516 61 0.0 0.9 0.00 0.16 0.16 52 1009.0
20260508014017 61 0.0 2.6 0.00 0.16 0.16 50 1009.0
20260508013515 61 113 0.9 2.6 0.00 0.16 0.16 47 1009.0
20260508013017 62 68 0.9 4.3 0.00 0.16 0.16 42 1009.1
20260508012517 62 45 1.7 4.3 0.00 0.16 0.16 36 1009.1
20260508012018 62 338 1.7 4.3 0.00 0.16 0.16 36 1009.0
20260508011518 62 0 0.9 4.3 0.00 0.16 0.16 37 1009.0
20260508011037 62 23 0.9 5.2 0.00 0.16 0.16 37 1008.9
20260508010538 62 338 0.9 7.0 0.00 0.16 0.16 37 1008.8
20260508010037 62 0 0.9 3.5 0.00 0.16 0.16 37 1008.8
20260508005517 62 0 0.9 4.3 0.00 0.16 0.16 37 1008.6
20260508005037 62 45 0.9 2.6 0.00 0.16 0.16 36 1008.7
20260508004517 62 0.0 2.6 0.00 0.16 0.16 36 1008.6
20260508004017 62 0.0 1.7 0.00 0.16 0.16 36 1008.6
20260508003517 62 338 0.9 3.5 0.00 0.16 0.16 35 1008.6
20260508003037 62 0 1.7 4.3 0.00 0.16 0.16 34 1008.4
20260508002518 62 0 1.7 6.1 0.00 0.16 0.16 34 1008.4
20260508002017 62 45 0.9 3.5 0.00 0.16 0.16 34 1008.3
20260508001538 62 23 1.7 4.3 0.00 0.16 0.16 34 1008.2
20260508001017 63 0 1.7 7.8 0.00 0.16 0.16 34 1008.2
20260508000518 63 45 0.9 5.2 0.00 0.16 0.16 34 1008.2
20260508000018 63 45 0.9 3.5 0.00 0.16 0.16 33 1008.1
20260507235517 63 23 0.9 5.2 0.00 0.16 0.16 33 1008.1
20260507235018 63 45 0.9 5.2 0.00 0.16 0.16 33 1008.1
20260507234518 64 338 1.7 6.1 0.00 0.16 0.16 33 1008.1
20260507234017 64 45 1.7 5.2 0.00 0.16 0.16 33 1008.0
20260507233519 64 338 2.6 7.0 0.00 0.16 0.16 33 1007.9
20260507233037 64 0 1.7 6.1 0.00 0.16 0.16 32 1007.7
20260507232517 65 338 1.7 7.0 0.00 0.16 0.16 33 1007.7
20260507232017 65 338 1.7 5.2 0.00 0.16 0.16 33 1007.8
20260507231517 65 338 1.7 6.1 0.00 0.16 0.16 33 1007.8
20260507231017 65 45 1.7 7.8 0.00 0.16 0.16 32 1007.8
20260507230517 65 23 1.7 4.3 0.00 0.16 0.16 32 1007.8
20260507230017 65 0 1.7 7.0 0.00 0.16 0.16 32 1007.8
20260507225518 65 338 2.6 7.8 0.00 0.16 0.16 32 1007.7
20260507225017 65 338 2.6 5.2 0.00 0.16 0.16 31 1007.7
20260507224517 65 315 1.7 5.2 0.00 0.16 0.16 32 1007.7
20260507224017 65 338 1.7 5.2 0.00 0.16 0.16 31 1007.7
20260507223518 66 315 2.6 7.8 0.00 0.16 0.16 30 1007.7
20260507223017 66 315 2.6 7.8 0.00 0.16 0.16 30 1007.7
20260507222517 66 338 3.5 7.0 0.00 0.16 0.16 30 1007.7
20260507222018 66 315 3.5 8.7 0.00 0.16 0.16 31 1007.6
20260507221517 67 315 3.5 10.4 0.00 0.16 0.16 31 1007.6
20260507221018 67 338 3.5 7.8 0.00 0.16 0.16 31 1007.8
20260507220517 67 338 2.6 8.7 0.00 0.16 0.16 30 1007.7
20260507220017 67 0 3.5 7.0 0.00 0.16 0.16 31 1007.7
20260507215518 67 0 1.7 7.0 0.00 0.16 0.16 30 1007.7
20260507215017 67 338 2.6 7.8 0.00 0.16 0.16 31 1007.6
20260507214517 67 0 3.5 8.7 0.00 0.16 0.16 30 1007.6
20260507214017 67 45 2.6 7.0 0.00 0.16 0.16 30 1007.7
20260507213517 67 0 2.6 6.1 0.00 0.16 0.16 31 1007.7
20260507213017 67 23 1.7 9.6 0.00 0.16 0.16 31 1007.6
20260507212538 67 0 3.5 7.8 0.00 0.16 0.16 31 1007.5
20260507212017 67 338 1.7 4.3 0.00 0.16 0.16 31 1007.5
20260507211517 67 0 4.3 8.7 0.00 0.16 0.16 30 1007.4
20260507211017 67 293 1.7 6.1 0.00 0.16 0.16 31 1007.4
20260507210517 67 338 0.9 3.5 0.00 0.16 0.16 31 1007.4
20260507210017 66 270 1.7 5.2 0.00 0.16 0.16 32 1007.3
20260507205517 66 0 1.7 7.0 0.00 0.16 0.16 31 1007.4
20260507205017 67 338 3.5 7.8 0.00 0.16 0.16 31 1007.5
20260507204517 67 45 1.7 4.3 0.00 0.16 0.16 30 1007.5
20260507204018 67 45 3.5 8.7 0.00 0.16 0.16 29 1007.5
20260507203517 68 315 3.5 7.8 0.00 0.16 0.16 31 1007.5
20260507203017 67 0 2.6 8.7 0.00 0.16 0.16 30 1007.5
20260507202517 67 0 1.7 7.0 0.00 0.16 0.16 31 1007.6
20260507202059 67 45 2.6 7.0 0.00 0.16 0.16 30 1007.5
20260507201518 67 23 2.6 7.8 0.00 0.16 0.16 31 1007.6
20260507201039 67 0 2.6 7.0 0.00 0.16 0.16 30 1007.7
20260507200517 67 338 2.6 8.7 0.00 0.16 0.16 30 1007.7
20260507200017 67 315 1.7 7.8 0.00 0.16 0.16 30 1007.6
20260507195517 67 338 3.5 8.7 0.00 0.16 0.16 29 1007.7
20260507195017 68 338 2.6 7.0 0.00 0.16 0.16 30 1007.7
20260507194518 67 338 2.6 6.1 0.00 0.16 0.16 31 1007.8
20260507194037 67 338 3.5 7.8 0.00 0.16 0.16 30 1007.9
20260507193537 67 0 2.6 8.7 0.00 0.16 0.16 31 1007.8
20260507193016 67 0 2.6 7.0 0.00 0.16 0.16 30 1007.9
20260507192517 67 45 2.6 8.7 0.00 0.16 0.16 31 1007.9
20260507192017 67 315 3.5 7.8 0.00 0.16 0.16 31 1008.0
20260507191517 67 248 4.3 11.3 0.00 0.16 0.16 31 1008.0
20260507191016 67 270 6.1 12.2 0.00 0.16 0.16 30 1008.1
20260507190517 67 0 4.3 11.3 0.00 0.16 0.16 31 1008.1
20260507190017 67 338 3.5 11.3 0.00 0.16 0.16 30 1008.3
20260507185517 67 0 2.6 7.8 0.00 0.16 0.16 32 1008.3
20260507185017 67 0 2.6 7.0 0.00 0.16 0.16 31 1008.4
20260507184517 66 315 2.6 6.1 0.00 0.16 0.16 31 1008.4
20260507184037 66 338 2.6 7.8 0.00 0.16 0.16 31 1008.4
20260507183517 66 315 3.5 9.6 0.00 0.16 0.16 31 1008.4
20260507183017 66 45 2.6 7.8 0.00 0.16 0.16 31 1008.5
20260507182517 66 315 2.6 7.0 0.00 0.16 0.16 32 1008.6
20260507182037 65 293 2.6 6.1 0.00 0.16 0.16 32 1008.6
20260507181517 65 0 4.3 8.7 0.00 0.16 0.16 31 1008.8
20260507181017 65 293 3.5 8.7 0.00 0.16 0.16 31 1008.8
20260507180517 65 315 4.3 9.6 0.00 0.16 0.16 31 1009.0
20260507180018 65 338 3.5 7.0 0.00 0.16 0.16 32 1009.0
20260507175538 65 338 4.3 9.6 0.00 0.16 0.16 31 1009.1
20260507175017 65 338 2.6 7.0 0.00 0.16 0.16 31 1009.2
20260507174517 65 0 3.5 8.7 0.00 0.16 0.16 32 1009.3
20260507174017 65 0 3.5 10.4 0.00 0.16 0.16 32 1009.2
20260507173538 65 0 4.3 10.4 0.00 0.16 0.16 32 1009.3
20260507173017 64 270 2.6 6.1 0.00 0.16 0.16 32 1009.2
20260507172516 64 0 4.3 8.7 0.00 0.16 0.16 31 1009.3
20260507172018 64 0 2.6 9.6 0.00 0.17 0.16 31 1009.4
20260507171516 64 315 3.5 7.0 0.00 0.17 0.16 32 1009.5
20260507171017 64 0 2.6 7.8 0.00 0.17 0.16 32 1009.8
20260507170516 64 315 5.2 10.4 0.00 0.17 0.16 31 1009.6
20260507170016 64 293 3.5 10.4 0.00 0.17 0.16 32 1009.7
20260507165517 63 315 3.5 7.8 0.00 0.17 0.16 32 1009.8
20260507165018 63 315 4.3 9.6 0.00 0.17 0.16 31 1009.9
20260507164536 63 338 3.5 9.6 0.00 0.17 0.16 32 1010.0
20260507164017 63 315 3.5 7.8 0.00 0.17 0.16 33 1010.0
20260507163517 63 315 4.3 9.6 0.00 0.17 0.16 33 1010.0
20260507163016 63 338 4.3 8.7 0.00 0.18 0.16 32 1010.0
20260507162558 63 293 4.3 9.6 0.00 0.18 0.16 33 1010.1
20260507162016 62 315 4.3 10.4 0.00 0.18 0.16 32 1010.2
20260507161516 62 315 4.3 10.4 0.00 0.18 0.16 34 1010.3
20260507161017 62 0 4.3 10.4 0.00 0.18 0.16 33 1010.4
20260507160536 62 315 4.3 10.4 0.00 0.18 0.16 34 1010.5
20260507160036 62 315 5.2 9.6 0.00 0.18 0.16 35 1010.6
20260507155516 62 315 3.5 9.6 0.00 0.18 0.16 37 1010.7
20260507155016 62 338 2.6 6.1 0.00 0.18 0.16 38 1010.7
20260507154516 61 338 3.5 8.7 0.00 0.18 0.16 37 1010.7
20260507154017 61 315 4.3 10.4 0.00 0.18 0.16 37 1010.8
20260507153517 61 315 4.3 8.7 0.00 0.18 0.16 37 1010.8
20260507153016 60 0 3.5 9.6 0.00 0.18 0.16 38 1010.9
20260507152517 60 315 4.3 11.3 0.00 0.18 0.16 39 1010.8
20260507152038 60 315 5.2 12.2 0.00 0.18 0.16 39 1011.0